Regional Weather Roundup
Issued by NWS Memphis, TN

Home | Current Version | Previous Version | Text Only | Print | Product List | Glossary On
Versions: 1 2 3 4 5 6 7 8 9 10 11 12 13 14 15 16 17 18 19 20 21 22 23 24 25 26 27 28 29 30 31 32 33 34 35 36 37 38 39 40 41 42 43 44 45 46 47 48 49 50
000
ASUS44 KMEG 030110
RWRMEG
MEMPHIS CWA HOURLY WEATHER ROUNDUP
NATIONAL WEATHER SERVICE MEMPHIS TN
700 PM CST FRI DEC 02 2016

...WEST TENNESSEE...

CITY           SKY/WX    TMP DP  RH WIND       PRES   REMARKS
MEMPHIS INTL   MOCLDY    51  35  54 CALM      30.28R
NWS MEMPHIS      N/A     47 N/A N/A MISG        N/A
JACKSON        CLEAR     45  35  68 CALM      30.28S
BOLIVAR        CLEAR     45  36  70 CALM      30.27S
LEXINGTON      CLEAR     45  30  57 CALM      30.28R
DYERSBURG      PTCLDY   N/A N/A N/A E5        30.28S
UNION CITY       N/A     45  32  61 CALM      30.29R
PARIS          CLEAR     37  30  75 CALM      30.29S
HUNTINGDON     MOCLDY    41  32  70 CALM      30.28S


...EASTERN ARKANSAS...

CITY           SKY/WX    TMP DP  RH WIND       PRES   REMARKS
JONESBORO      PTCLDY    47  39  74 NE8       30.29R
WEST MEMPHIS   PTCLDY    50  36  58 NE3       30.27R
BATESVILLE     PTCLDY    48  36  61 CALM      30.29R
NEWPORT        LGT RAIN  48  43  82 NE8       30.28R
WALNUT RIDGE   CLOUDY    46  37  71 NE6       30.30R
BLYTHEVILLE    CLOUDY    46  38  73 NE6       30.29S
SEARCY         PTCLDY    50  39  66 NE5       30.27S
STUTTGART      CLOUDY    54  37  54 E7        30.26S
PINE BLUFF     CLOUDY    51  41  68 CALM      30.24S
MONTICELLO     CLOUDY    52  37  56 NE3       30.24R


...NORTH MISSISSIPPI...

CITY           SKY/WX    TMP DP  RH WIND       PRES   REMARKS
TUPELO         PTCLDY    50  34  54 CALM      30.26F
OXFORD         PTCLDY    45  36  70 CALM      30.29R
BATESVILLE     CLOUDY    46  39  76 CALM      30.28R
OLIVE BRANCH   MOCLDY   N/A N/A N/A CALM      30.27R
TUNICA         CLOUDY    50  37  62 NE3       30.28R HAZE
CLARKSDALE     PTCLDY    54  37  54 NE6       30.25F
CORINTH        PTCLDY    48  36  61 CALM      30.27R
GREENWOOD      PTCLDY    50  36  58 E3        30.25S
COLUMBUS       PTCLDY    47  38  73 CALM      30.26R
STARKVILLE     PTCLDY    46  41  81 CALM      30.28S
GOLDEN TRIANGL CLEAR     52  32  46 CALM      30.23R


...SOUTHEAST MISSOURI...

CITY           SKY/WX    TMP DP  RH WIND       PRES   REMARKS
KENNETT        CLOUDY    48  36  61 NE6       30.29R
WEST PLAINS    PTCLDY    41  30  65 CALM      30.30R
CAPE GIRARDEAU CLEAR     43  30  60 CALM      30.32R


...NORTHWEST ALABAMA...

CITY           SKY/WX    TMP DP  RH WIND       PRES   REMARKS
MUSCLE SHOALS  CLOUDY    47  35  63 CALM      30.29R


...MIDDLE TENNESSEE...

CITY           SKY/WX    TMP DP  RH WIND       PRES   REMARKS
NASHVILLE      PTCLDY    49  26  41 N6        30.29S
CLARKSVILLE    PTCLDY    41  29  62 CALM      30.30R
COLUMBIA       CLEAR     45  37  76 SW3       30.27R


...WESTERN KENTUCKY...

CITY           SKY/WX    TMP DP  RH WIND       PRES   REMARKS
PADUCAH        CLEAR     38  29  70 CALM      30.31R
FORT CAMPBELL  CLOUDY    46  28  50 N3        30.29R


...CENTRAL ARKANSAS...

CITY           SKY/WX    TMP DP  RH WIND       PRES   REMARKS
LITTLE ROCK    MOCLDY    48  37  65 CALM      30.25S


SKY/WX REPORTED AS FAIR MEANS FEW OR NO CLOUDS BELOW
12 THOUSAND FEET.





USA.gov is the U.S. government's official web portal to all federal, state and local government web resources and services.